Regional Weather Roundup
Issued by NWS

Home | Current Version | Previous Version | Graphics & Text | Print | Product List | Glossary Off
Versions: 1 2 3 4 5 6 7 8 9 10 11 12 13 14 15 16 17 18 19 20 21 22 23 24 25 26 27 28 29 30 31 32 33 34 35 36 37 38 39 40 41 42 43 44 45 46 47 48 49 50

000
ASUS43 KMKX 230121
RWRWI

WISCONSIN REGIONAL WEATHER ROUNDUP
NATIONAL WEATHER SERVICE MILWAUKEE/SULLIVAN WI
800 PM CDT WED MAR 22 2017

NOTE: "FAIR" INDICATES FEW OR NO CLOUDS BELOW 12,000 FEET WITH NO
SIGNIFICANT WEATHER AND/OR OBSTRUCTIONS TO VISIBILITY.

WIZ001-002-006>008-014>016-023>028-230200-
NORTHWEST WISCONSIN

CITY           SKY/WX    TMP DP  RH WIND       PRES   REMARKS
SUPERIOR ARPT  CLOUDY    29  22  74 E6        30.38F WCI  23
ASHLAND        CLEAR     25  17  72 NE6       30.40F WCI  18
HAYWARD        CLOUDY    32   8  36 SE3       30.36S
SIREN          CLOUDY    35   8  32 S5        30.35F WCI  31
CUMBERLAND     CLOUDY    32  12  43 SE7       30.35F WCI  26
RICE LAKE      CLOUDY    34   9  35 CALM      30.36F
CHETEK         CLOUDY    33  10  37 SE5       30.37F WCI  29
LADYSMITH      CLOUDY    32  14  46 SE5       30.39F WCI  27
EAU CLAIRE     CLOUDY    35   8  32 SE5       30.37F WCI  31
MENOMONIE      CLOUDY    36   9  33 SE5       30.37F WCI  32
NEW RICHMOND   CLOUDY    35  10  35 SE6       30.35F WCI  30
OSCEOLA        CLOUDY    36  11  36 SE8       30.37F WCI  29
$$

WIZ003>005-009-010-017-018-230200-
NORTH CENTRAL WISCONSIN

CITY           SKY/WX    TMP DP  RH WIND       PRES   REMARKS
MANITOWISH WTR CLEAR     29   6  38 S5        30.36S WCI  24
ARBOR VITAE    CLEAR     32   6  33 S5        30.37S WCI  27
WOODRUFF       CLEAR     32   6  33 S5        30.37S WCI  27
RHINELANDER    CLEAR     31   6  35 SE3       30.39S
EAGLE RIVER    CLEAR     29   4  34 S3        30.38R
LAND O LAKES   CLEAR     30   1  29 CALM      30.39S
PHILLIPS       CLOUDY    28  11  48 S6        30.37S WCI  22
TOMAHAWK       CLEAR     29   7  39 CALM      30.40S
MEDFORD        CLEAR     29  12  49 SE5       30.37F WCI  23
MERRILL        CLEAR     31   8  37 CALM      30.40F
$$

WIZ029-030-035-036-043>047-230200-
CENTRAL WISCONSIN

CITY           SKY/WX    TMP DP  RH WIND       PRES   REMARKS
WAUSAU         CLEAR     29   9  43 SE8       30.40F WCI  21
MOSINEE        PTCLDY    28  10  47 SE7       30.42F WCI  21
MARSHFIELD     CLEAR     29  12  49 S8        30.39F WCI  21
STEVENS POINT  CLEAR     28  11  49 SE7       30.43F WCI  20
WAUPACA        CLEAR     30  16  56 E5        30.46F WCI  25
WAUTOMA        PTCLDY    32  16  51 SE3       30.46F
WISC RAPIDS    CLEAR     31   9  39 S5        30.44S WCI  26
CAMP DOUGLAS   MOCLDY    34  12  40 SE7       30.42F WCI  28
$$

WIZ011>013-019>022-031-037>040-048>050-230200-
NORTHEAST WISCONSIN

CITY           SKY/WX    TMP DP  RH WIND       PRES   REMARKS
ANTIGO         CLOUDY    28  13  52 S9        30.41S WCI  19
SHAWANO        CLOUDY    31  14  49 SE3       30.47S
OCONTO         CLOUDY    26  19  74 SE6       30.50F WCI  19
STURGEON BAY   CLEAR     23  16  74 SE3       30.51F
GREEN BAY      PTCLDY    30  22  72 SE9       30.49F WCI  22
MANITOWOC      PTCLDY    25  18  74 SE5       30.52F WCI  19
APPLETON       MOCLDY    28  18  64 SE9       30.45F WCI  20
CLINTONVILLE   PTCLDY    30  14  51 S5        30.46F WCI  25
OSHKOSH        PTCLDY    30  20  66 SE10      30.46F WCI  21
$$

WIZ032>034-041-042-053>061-230200-
SOUTHWEST WISCONSIN

CITY           SKY/WX    TMP DP  RH WIND       PRES   REMARKS
LA CROSSE      CLEAR     38  14  37 S6        30.40F WCI  33
SPARTA         CLEAR     35  10  34 SE6       30.42F WCI  30
VIROQUA        CLEAR     33  12  42 S7        30.39S WCI  27
BOSCOBEL       CLEAR     36  11  35 CALM      30.43F
PRAIRIE DU CHI CLOUDY    37  12  35 E5        30.41F WCI  33
PLATTEVILLE    CLOUDY    35  19  51 E6        30.42S WCI  30
$$

WIZ056-057-062-063-064-067-068-230200-
SOUTH CENTRAL WISCONSIN

CITY           SKY/WX    TMP DP  RH WIND       PRES   REMARKS
REEDSBURG      CLOUDY    33  15  46 CALM      30.43F
BARABOO/DELLS  CLOUDY    32  16  50 SE5       30.43F WCI  28
LONE ROCK      CLEAR     34  14  43 SE6       30.44F WCI  29
MINERAL POINT  CLEAR     36  16  44 E6        30.41F WCI  31
MADISON        MOCLDY    34  16  47 SE8       30.45S WCI  27
MIDDLETON      PTCLDY    36  19  51 SE7       30.45S WCI  30
WATERTOWN      CLOUDY    30  19  64 E10       30.47S WCI  21
MONROE         CLEAR     32  19  59 E6        30.43F WCI  26
JANESVILLE     MOCLDY    34  19  55 E14       30.46F WCI  24
$$

WIZ051-052-058>065-066-070>072-230200-
SOUTHEAST WISCONSIN

CITY           SKY/WX    TMP DP  RH WIND       PRES   REMARKS
MILWAUKEE      MOCLDY    27  17  66 E6        30.50F WCI  20
WAUKESHA       PTCLDY    27  18  69 E5        30.50S WCI  21
MILWAUKEE/TIMM CLEAR     27  16  63 NE5       30.51F WCI  21
RACINE         PTCLDY    25  16  68 NE5       30.52F WCI  19
KENOSHA        MOCLDY    26  18  71 E6        30.50F WCI  19
FOND DU LAC    PTCLDY    30  19  63 SE13      30.47F WCI  20
SHEBOYGAN      CLEAR     25  16  68 SE5       30.50F WCI  19
WEST BEND      PTCLDY    27  18  69 SE7       30.48F WCI  19
JUNEAU         PTCLDY    29  20  69 E8        30.47F WCI  21
$$

LSZ147-162-230200-
LAKE SUPERIOR

STATION/POSITION TIME  TEMP    WIND        PRES    WAVE
                       AIR SEA DIR/SP/G            HT/PER
                 (UTC) (F)     (DEG/KT/KT) (MB)    (FT/S)
DEVILS ISLAND    0000   27      90/ 14/ 15 1031.0F
PORT WING        0030   31      90/  3/  6 1028.4F
SAXON HARBOR     0030   28      CALM  /  1 1029.1S
$$

LMZ867-665-643>646-230200-
LAKE MICHIGAN

STATION/POSITION TIME  TEMP    WIND        PRES    WAVE
                       AIR SEA DIR/SP/G            HT/PER
                 (UTC) (F)     (DEG/KT/KT) (MB)    (FT/S)
CHAMBERS ISLAND  0040   25     140/  4/  6 1032.5F
NORTHPORT PIER   0040   24     160/  2/  5 1033.2F
SISTER BAY       2235   29     130/  7/ 10   N/A
KEWAUNEE LAKESHO 0054   26     130/  4/  7 1032.6F
SHEBOYGAN LAKESH 0100   27     130/  7/  8 1033.8F
PORT WASHINGTON  0040   28     100/  5/  7 1034.2F
MILWAUKEE LAKESH 0100   28      60/  5/  7   N/A
KENOSHA   LAKESH 0000   28      70/  7/  9 1033.2
$$

TC  - TEMPERATURE IN CELSIUS
VSB - VISIBILITY IN STATUTE MILES
WCI - WIND CHILL INDEX
HX  - HEAT INDEX




USA.gov is the U.S. government's official web portal to all federal, state and local government web resources and services.